Regional Weather Roundup
Issued by NWS

Home | Current Version | Previous Version | Graphics & Text | Print | Product List | Glossary On
Versions: 1 2 3 4 5 6 7 8 9 10 11 12 13 14 15 16 17 18 19 20 21 22 23 24 25 26 27 28 29 30 31 32 33 34 35 36 37 38 39 40 41 42 43 44 45 46 47 48 49 50
000
ASUS45 KBOI 292210
RWRID

IDAHO REGIONAL WEATHER ROUNDUP
NATIONAL WEATHER SERVICE BOISE ID
400 PM MDT SAT AUG 29 2015

NOTE: "FAIR" INDICATES FEW OR NO CLOUDS BELOW 12000 FEET
WITH NO SIGNIFICANT WEATHER AND/OR OBSTRUCTIONS TO VISIBILITY

IDZ012-014-292300-
SOUTHWEST IDAHO


CITY           SKY/WX    TMP DP  RH WIND       PRES   REMARKS
BOISE          CLOUDY    93  39  15 SW12      29.81F
CALDWELL         N/A     84  48  28 NW13      29.82S
MOUNTAIN HOME  CLOUDY    91  36  14 N6        29.82F
$$

IDZ016-017-292300-
SOUTHCENTRAL IDAHO


CITY           SKY/WX    TMP DP  RH WIND       PRES   REMARKS
JEROME         CLOUDY    87  44  22 NW9       29.92F
TWIN FALLS     CLOUDY    89  42  19 NW12      29.93F
$$

IDZ019>023-292300-
SOUTHEAST IDAHO


CITY           SKY/WX    TMP DP  RH WIND       PRES   REMARKS
IDAHO FALLS    PTSUNNY   93  41  16 SW25G32   29.96F
POCATELLO      MOSUNNY   94  41  16 SW22G35   29.93F HX  90
REXBURG        CLOUDY    91  40  16 SW21G33   29.97F
$$

IDZ006-010-011-018-031-032-292300-
CENTRAL IDAHO MOUNTAINS


CITY           SKY/WX    TMP DP  RH WIND       PRES   REMARKS
MCCALL         CLOUDY    74  37  26 SW18G28   29.97R
HAILEY         CLOUDY    81  43  26 W8        30.03F
STANLEY          N/A     77  34  21 S8G18     30.08S
SALMON         CLOUDY    90  45  20 SW22G29   29.75S
CHALLIS        CLOUDY    88  38  17 S22G30    29.90S
$$

IDZ002-004-006-007-026-292300-
NORTHERN IDAHO


CITY           SKY/WX    TMP DP  RH WIND       PRES   REMARKS
LEWISTON       NOT AVBL
LOWELL           N/A     69  57  65 N3        29.74R
COEUR D`ALENE  CLOUDY    70  45  40 SW15G24   29.86R
MULLAN PASS    CLOUDY    58  44  60 VRB7      29.98S HAZE
$$



USA.gov is the U.S. government's official web portal to all federal, state and local government web resources and services.